Regional Weather Roundup
Issued by NWS

Home | Current Version | Previous Version | Graphics & Text | Print | Product List | Glossary On
Versions: 1 2 3 4 5 6 7 8 9 10 11 12 13 14 15 16 17 18 19 20 21 22 23 24 25 26 27 28 29 30 31 32 33 34 35 36 37 38 39 40 41 42 43 44 45 46 47 48 49 50
000
ASUS45 KCYS 270310
RWRWY

WYOMING REGIONAL WEATHER ROUNDUP
NATIONAL WEATHER SERVICE CHEYENNE WY
900 PM MDT TUE AUG 26 2014

NOTE:  "FAIR" INDICATES FEW OR NO CLOUDS BELOW 12,000 FEET
WITH NO SIGNIFICANT WEATHER AND/OR OBSTRUCTIONS TO VISIBILITY.

WYZ001-270400-
YELLOWSTONE NATIONAL PARK

CITY           SKY/WX    TMP DP  RH WIND       PRES   REMARKS
LK YELLOWSTONE   N/A     45  41  86 NW5       30.36S
W YELLOWSTONE  NOT AVBL

$$
WYZ002>013-054>058-071-098>099-270400-
NORTHERN WYOMING

CITY           SKY/WX    TMP DP  RH WIND       PRES   REMARKS
JACKSON        PTCLDY    57  45  62 W6        30.27R
CODY           PTCLDY    63  52  67 CALM      30.18R
GREYBULL       PTCLDY    70  49  47 CALM      30.11R
WORLAND        PTCLDY    64  51  62 CALM      30.12R
SHERIDAN       PTCLDY    60  51  72 CALM      30.15R
BUFFALO        PTCLDY    59  49  69 W7        30.21R
GILLETTE       MOCLDY    57  52  83 CALM      30.16S
HULETT         FAIR      63  54  72 MISG      30.19
NEWCASTLE      FAIR      70  54  56 E7        30.16

$$
WYZ014>020-022>026-101>103-270400-
CENTRAL WYOMING

CITY           SKY/WX    TMP DP  RH WIND       PRES   REMARKS
BIG PINEY      CLOUDY    54  45  71 NW8       30.29S
PINEDALE       MOCLDY    52  45  76 NW5       30.32R
DUBOIS         FAIR      54  41  62 NE3       30.30R
LANDER         MOCLDY    64  46  52 W6        30.20R
RIVERTON       MOCLDY    66  45  46 N10       30.19R
CASPER         MOCLDY    66  48  52 NE6       30.20R
DOUGLAS        MOCLDY    65  51  60 NE16G26   30.18S

$$
WYZ021-027>030-104>119-270400-
SOUTHERN WYOMING

CITY           SKY/WX    TMP DP  RH WIND       PRES   REMARKS
EVANSTON       MOCLDY    55  46  71 N8        30.28R
KEMMERER       CLOUDY    55  43  62 CALM      30.31R
FORT BRIDGER   FAIR      54  47  78 SW8       30.31R
ROCK SPRINGS   CLOUDY    55  46  71 SE14      30.29S
DIXON          FAIR      60  50  68 N5        30.30R
RAWLINS        MOCLDY    63  47  55 SW13      30.29R
SARATOGA       FAIR      61  50  67 MISG      30.30R
LARAMIE        CLOUDY    56  47  71 E6        30.30S
CHEYENNE       CLOUDY    63  52  67 CALM      30.24S
TORRINGTON     PTCLDY    68  50  52 SE7       30.12R
PINE BLUFFS    FAIR      59  52  77 NE7       30.22S

$$


USA.gov is the U.S. government's official web portal to all federal, state and local government web resources and services.